Regional Weather Roundup
Issued by NWS Charleston, SC

Current Version | Previous Version | Text Only | Print | Product List | Glossary Off
Versions: 1 2 3 4 5 6 7 8 9 10 11 12 13 14 15 16 17 18 19 20 21 22 23 24 25 26 27 28 29 30 31 32 33 34 35 36 37 38 39 40 41 42 43 44 45 46 47 48 49 50

000
ASUS42 KCHS 051912
RWRCHS

REGIONAL WEATHER ROUNDUP
NATIONAL WEATHER SERVICE CHARLESTON SC
300 PM EDT TUE MAY 05 2015

NOTE: "FAIR" INDICATES FEW OR NO CLOUDS BELOW 12,000 FEET WITH NO
SIGNIFICANT WEATHER AND/OR OBSTRUCTIONS TO VISIBILITY.

NOT ALL STATIONS ARE QUALITY CONTROLLED BY THE NATIONAL
WEATHER SERVICE. USE DATA WITH CAUTION...ESPECIALLY
DEWPOINT OBSERVATIONS.

SCZ027-030-031-034>040-042>050-052000-
...SOUTHEAST SOUTH CAROLINA...

CITY           SKY/WX    TMP DP  RH WIND       PRES   REMARKS
N CHARLESTON   MOSUNNY   78  53  41 E10       30.30F
WATERFRONT PRK NOT AVBL
MOUNT PLEASANT FAIR      77  57  50 MISG      30.30F
PINOPOLIS      NOT AVBL
MONCKS CORNER  MOCLDY    81  52  36 SE3       30.29F
SUMMERVILLE    MOCLDY    79  54  41 SE5       30.30S
BEAUFORT MCAS  PTSUNNY   78  55  44 E10       30.28F
BEAUFORT ARPT  FAIR      77  59  53 NE9       30.28F
HILTON HEAD IS SUNNY     73  59  60 NE7G18    30.30F
WALTERBORO     MOCLDY    79  54  41 SE14      30.29F
ALLENDALE      FAIR      81  54  39 E10       30.27F

...SOUTHERN MIDLANDS AND PEE DEE...

CITY           SKY/WX    TMP DP  RH WIND       PRES   REMARKS
GEORGETOWN     NOT AVBL
KINGSTREE      NOT AVBL
ORANGEBURG     SUNNY     79  51  37 E10G18    30.29F
BARNWELL       FAIR      81  54  39 E12G17    30.28F
AIKEN          FAIR      81  48  32 E12G20    30.31F
MANNING        FAIR      81  50  34 SE8       30.28F
COLUMBIA       MOSUNNY   82  53  36 E10G23    30.27F
SUMTER         MOSUNNY   81  54  39 E13       30.27F
FLORENCE       MOSUNNY   81  53  37 VRB3      30.29F
MYRTLE BEACH   SUNNY     75  55  50 SE14      30.34F
N MYRTLE BEACH SUNNY     76  55  48 SE12      30.32F

$$

GAZ063-065-086>088-099>101-113>116-118-119-134>141-150-052000-
...SOUTHEAST GEORGIA...

CITY           SKY/WX    TMP DP  RH WIND       PRES   REMARKS
SAVANNAH ARPT  PTSUNNY   77  54  44 E15       30.27F
HUNTER AAF     SUNNY     78  59  51 E13       30.24F
FORT STEWART   MOSUNNY   79  54  42 E8        30.24F
STATESBORO       N/A     81  56  42 E9        30.27F
SYLVANIA       MOCLDY    78  56  45 E8        30.28F
CLAXTON        FAIR      79  59  50 E12G17    30.26F

...CSRA...CENTRAL AND FAR SOUTHEAST GEORGIA...

CITY           SKY/WX    TMP DP  RH WIND       PRES   REMARKS
THOMSON        MOSUNNY   82  57  42 CALM      30.31F
AUGUSTA-BUSH   MOSUNNY   82  53  36 E14G21    30.26F
AUGUSTA-DANIEL MOSUNNY   83  51  33 VRB6G16   30.27F
SWAINSBORO     FAIR      82  30  15 SE10      30.27F
VIDALIA        MOSUNNY   79  55  44 NE7       30.25F
EASTMAN        FAIR      82  55  39 E9        30.27F
HAZLEHURST     MOCLDY    80  54  40 E10G17    30.24F
ALMA           MOSUNNY   79  58  48 E8        30.24F
WAYCROSS       PTSUNNY   83  62  48 E10G17    30.23F
JESUP          FAIR      81  61  50 E10G16    30.25F
BAXLEY         FAIR      81  55  41 E10       30.24F
BRUNSWICK      MOSUNNY   79  55  44 NE16      30.26F
SAINT SIMONS   SUNNY     78  59  51 MISG      30.25F

$$

SCZ027-028-034-036>038-045-046-048>050-GAZ119-141-052000-
...LAKE AND SUPPLEMENTAL COASTAL OBSERVATIONS...

STATION/POSITION TIME  TEMP    WIND        PRES    WAVE   SWELL
                       AIR SEA DIR/SP/G            HT/PER HT/PER/DIR
                 (UTC) (F)     (DEG/KT/KT) (MB)    (FT/S) (FT/S/D)
UPR LAKE MARION  NOT AVBL
WINYAH BAY       1745   72      80/  9     1026.0
LAKE MURRAY      1800   76     200/  5/  5 1025.4F
ACE BASIN NERRS  NOT AVBL
FORT PULASKI     1806   72 71   50/ 16/ 20 1026.3F
SAPELO ISLAND    1800   78      70/ 12     1025.0

$$

ANZ835-935-AMZ111-154-330-350-352-354-370-450-454-472-052000-
...C-MAN AND BUOY OBSERVATIONS...

STATION/POSITION TIME  TEMP    WIND        PRES    WAVE   SWELL
                       AIR SEA DIR/SP/G            HT/PER HT/PER/DIR
                 (UTC) (F)     (DEG/KT/KT) (MB)    (FT/S) (FT/S/D)
BUOY 41004       1850   72 73   60/ 14/ 16 1025.4F   3/ 6   2/ 7
BUOY 41008       1850   71 71   40/ 14/ 16 1024.9F   4/ 6   2/120/ 7
FOLLY BEACH CMAN 1800   72      50/ 14/ 16 1026.5F
CAPERS NEARSHORE 1808   71      60/ 14/ 17 1026.5F
FRIPP NEARSHORE  1800   72      60/ 16/ 17 1025.3F


STATION/POSITION TIME  TEMP    WIND        PRES    WAVE   SWELL
                       AIR SEA DIR/SP/G            HT/PER HT/PER/DIR
                 (UTC) (F)     (DEG/KT/KT) (MB)    (FT/S) (FT/S/D)
5E ST. MARYS GA  1821      73                N/A     4/ 7
FRYING PAN BUOY  1850   73 72   80/ 10/ 12 1027.3F   3/ 5   3/130/ 5
BUOY 41025       1850   73 77  150/ 14/ 16 1027.8F   3/11   2/ 80/11
CAPE LOOKOUT NC  1800   71     130/  8/  8 1027.5F
BUOY 41002       1850   70 70  100/ 17/ 19 1026.0F   5/ 6   2/ 70/ 9
BUOY 41010       1820   73 78   90/ 17/ 21 1021.6F
ST AUGUSTINE FL  1900   73 74   60/  6/  7 1023.7F


$$


USA.gov is the U.S. government's official web portal to all federal, state and local government web resources and services.